Terminal Aerodrome Forecast
Issued by NWS

Home | Current Version | Previous Version | Text Only | Print | Product List | Glossary On
Versions: 1 2 3 4 5 6 7 8 9 10 11 12 13 14 15 16 17 18 19 20 21 22 23 24 25 26 27 28 29 30 31 32 33 34 35 36 37 38
000
FTUS45 KBOI 272330
TAFMYL
TAF
KMYL 272330Z 2800/2824 VRB03KT P6SM VCSH BKN040 OVC070
      TEMPO 2800/2804 5SM -SN BR OVC025
     FM280900 VRB04KT 4SM BR VCSH SCT025 OVC050
     FM281900 33010KT P6SM SCT080=

USA.gov is the U.S. government's official web portal to all federal, state and local government web resources and services.